Regional Weather Roundup
Issued by NWS

Home | Current Version | Previous Version | Graphics & Text | Print | Product List | Glossary On
Versions: 1 2 3 4 5 6 7 8 9 10 11 12 13 14 15 16 17 18 19 20 21 22 23 24 25 26 27 28 29 30 31 32 33 34 35 36 37 38 39 40 41 42 43 44 45 46 47 48 49 50
000
ASUS43 KLOT 152103
RWRIL

ILLINOIS REGIONAL WEATHER ROUNDUP
NATIONAL WEATHER SERVICE CHICAGO/ROMEOVILLE IL
300 PM CST FRI DEC 15 2017

NOTE: "FAIR" INDICATES FEW OR NO CLOUDS BELOW 12,000 FEET WITH NO
SIGNIFICANT WEATHER AND/OR OBSTRUCTIONS TO VISIBILITY.

* THESE STATIONS ARE NOT UNDER NWS QUALITY CONTROL. THEY ALSO MAY NOT
  REPORT WEATHER SUCH AS PRECIPITATION OR FOG.

ILZ001-002-007-009-015-016-024-152200-
NORTHWEST ILLINOIS

CITY           SKY/WX    TMP DP  RH WIND       PRES   REMARKS
MOLINE         CLOUDY    39  24  55 W14       29.91F WCI  31
STERLING*      CLOUDY    34  22  61 W17       29.91S WCI  23
SAVANNA*       CLOUDY    34  25  69 W9        29.89F WCI  27
$$

ILZ003-004-008-010-011-017-018-152200-
NORTH CENTRAL ILLINOIS

CITY           SKY/WX    TMP DP  RH WIND       PRES   REMARKS
ROCKFORD       FLURRIES  31  23  72 W9        29.90S WCI  23
FREEPORT*      CLOUDY    31  24  76 W12       29.89S WCI  22
ROCHELLE*      CLOUDY    32  23  68 W18       29.90S WCI  21
DE KALB*       MIX PCPN  32  22  68 W15       29.89S WCI  21
$$

ILZ005-006-012>014-019>023-152200-
NORTHEAST ILLINOIS

CITY           SKY/WX    TMP DP  RH WIND       PRES   REMARKS
CHICAGO-OHARE  FLURRIES  32  22  66 W17       29.89S WCI  21
CHICAGO-MIDWAY FLURRIES  32  24  72 W13       29.91S WCI  22
AURORA         CLOUDY    33  22  63 SW14      29.91S WCI  23
LANSING*       CLOUDY    32  23  68 W13G22    29.92S WCI  23
JOLIET*        CLOUDY    34  22  61 W8        29.93S WCI  27
WAUKEGAN       CLOUDY    30  21  69 VRB7      29.86S WCI  23
DUPAGE AIRPORT CLOUDY    31  25  78 W16       29.89S WCI  20
WHEELING       CLOUDY    32  22  66 SW10      29.90S WCI  24
NORTHERLY ISL    N/A     32  19  59 SW6         N/A  WCI  26
$$

LMZ740>746-152200-
SOUTHERN LAKE MICHIGAN

STATION/POSITION SKY/WX   TEMP    WIND        PRES    VSBY  WAVE
                          AIR SEA DIR/SP/G                  HT/PER
                          (F)     (DEG/KT/KT) (MB)    (MI)  (FT/S)
HARRISON CRIB              32     260/ 18/ 21   N/A
BURNHAM HARBOR             32     230/  8/ 13   N/A
CALUMET HARBOR             32     240/ 10/ 14 1012.2R
BURNS HARBOR               32     260/ 18/ 20 1013.2S
MICHIGAN CITY              31     250/ 24/ 26   N/A
$$

ILZ025>027-034>036-040-047-049-050-058-095>099-152200-
WEST-CENTRAL ILLINOIS

CITY           SKY/WX    TMP DP  RH WIND       PRES   REMARKS
QUINCY         SUNNY     42  20  41 SW15      29.99F
GALESBURG*     CLOUDY    38  24  57 SW15      29.96S WCI  29
MACOMB*        CLOUDY    40  22  48 SW16      29.99S
PITTSFIELD*    SUNNY     43  22  43 SW12      30.02F
$$

ILZ028>032-037-038-041>044-048-051>054-059>061-152200-
CENTRAL ILLINOIS

CITY           SKY/WX    TMP DP  RH WIND       PRES   REMARKS
BLOOMINGTON    CLOUDY    34  19  54 SW17G24   29.97F WCI  23
DECATUR        CLOUDY    37  19  48 W8        30.01F WCI  31
PEORIA         CLOUDY    37  20  50 SW13G22   29.97F WCI  29
LACON*         CLOUDY    36  20  52 SW13G18   29.94F WCI  27
LINCOLN*       CLOUDY    38  22  51 SW8       30.00S WCI  32
SPRINGFIELD    CLOUDY    40  20  44 W13G21    30.01F
TAYLORVILLE    NOT AVBL
$$

ILZ033-039-045-046-055>057-062-063-152200-
EAST-CENTRAL ILLINOIS

CITY           SKY/WX    TMP DP  RH WIND       PRES   REMARKS
CHAMPAIGN      CLOUDY    35  19  52 W15       30.00S WCI  25
DANVILLE*      CLOUDY    33  17  51 W13       29.97R WCI  24
MATTOON        SUNNY     36  21  54 W9        30.02S WCI  29
$$

ILZ079-100>102-152200-
SOUTHWEST ILLINOIS

CITY           SKY/WX    TMP DP  RH WIND       PRES   REMARKS
ALTON          MOSUNNY   43  23  45 W14       30.06R
BELLEVILLE     CLOUDY    44  23  42 W14       30.06R
CAHOKIA*       MOSUNNY   43  21  41 W8        30.07
SPARTA*        PTSUNNY   43  28  55 W12G22    30.09S
$$

ILZ064>066-069>071-074>076-080>082-084>086-088>090-092>094-152200-
SOUTH-CENTRAL ILLINOIS

CITY           SKY/WX    TMP DP  RH WIND       PRES   REMARKS
CARBONDALE     CLOUDY    44  26  49 CALM      30.08S
CAIRO*         CLOUDY    45  27  50 SW8       30.12R
EFFINGHAM*     SUNNY     39  24  56 W8        30.06S WCI  33
MARION         CLOUDY    45  25  45 SW8       30.10R
MT. VERNON     CLOUDY    42  26  53 W9        30.08R
CENTRALIA*     MOSUNNY   40  26  56 W10       30.07R
SALEM*         PTSUNNY   42  24  47 W9        30.07R
METROPOLIS*    CLOUDY    43  26  52 SW9       30.12S
$$

ILZ067-068-072-073-078-083-087-091-152200-
SOUTHEAST ILLINOIS

CITY           SKY/WX    TMP DP  RH WIND       PRES   REMARKS
LAWRENCEVILLE  CLOUDY    38  26  62 W8        30.07R WCI  32
FLORA*         CLOUDY    41  27  57 W10G18    30.07S
HARRISBURG*    CLOUDY    43  27  53 W12       30.10R
ROBINSON*      MOSUNNY   35  24  66 W13       30.07R WCI  26
CARMI*         CLOUDY    41  26  57 W13       30.08R
$$

ABBREVIATIONS USED IN REMARKS
   TC - TEMPERATURE IN CELSIUS
  WCI - WIND CHILL INDEX
   HX - HEAT INDEX
  VSB - VISIBILITY
$$





USA.gov is the U.S. government's official web portal to all federal, state and local government web resources and services.